#timestamp,LO_Frequency,Hit,StdDev 
1513742415.3,286046998.3,N
1513742435.2,286046996.6,N
1513742455.0,286046996.7,N
1513742455.9,286046996.7,N
1513742475.8,286046995.2,N
1513742495.6,286046994.9,N
1513742515.4,286046995.7,N
1513742535.3,286046993.6,N
1513742555.1,286046993.7,N
1513742575.8,286046993.5,N
1513742595.7,286046993.8,N
1513742615.5,286046995.7,N
1513742635.4,286046995.3,N
1513742655.2,286046993.4,N
1513742675.0,286046996.3,N
1513742675.9,286046996.3,N
1513742695.8,286046994.6,N
1513742715.6,286046992.1,Y
1513742735.5,286046995.3,P
1513742755.3,286046997.2,P
1513742775.1,286046998.8,N
1513742795.9,286046998.3,N
1513742815.7,286046999.2,N
1513742835.5,286046996.7,N
1513742855.4,286046996.7,N
1513742875.2,286046995.0,Y
1513742895.1,286046999.4,P
1513742896.0,286046999.4,N
1513742915.8,286046997.0,P
1513742935.6,286046996.9,N
1513742955.5,286046998.8,N
1513742975.3,286046997.8,N
1513742995.1,286046997.8,N
1513743015.9,286046997.1,Y
1513743035.7,286046998.2,P
1513743055.6,286047001.1,P
1513743075.4,286046998.1,N
1513743095.2,286046998.8,N
1513743115.1,286046997.0,N
1513743116.0,286046997.0,N
1513743135.8,286046997.5,N
1513743155.7,286046996.5,N
1513743175.5,286046996.5,N
1513743195.3,286046997.3,N
1513743215.2,286046995.8,Y
1513743235.0,286046999.4,P
1513743235.9,286046999.4,N
1513743255.7,286047001.0,N
1513743275.6,286047000.9,N
1513743295.4,286047002.6,N
1513743315.3,286047001.0,N
1513743335.1,286047000.1,N
1513743336.0,286047000.1,N
1513743355.8,286047000.2,N
1513743375.7,286047002.6,N
1513743395.5,286047000.9,N
1513743415.4,286047000.9,N
1513743435.2,286047000.7,N
1513743455.0,286047001.2,N
1513743455.9,286047001.2,N
1513743475.9,286046999.0,N
1513743495.7,286046997.5,N
1513743515.5,286046995.1,Y
1513743535.4,286046993.7,P
1513743555.2,286046994.4,N
1513743575.1,286046994.7,N
1513743576.0,286046994.7,N
1513743595.8,286046994.0,N
1513743615.6,286046993.7,N
1513743635.5,286046994.5,N
1513743655.3,286046996.4,N
1513743675.2,286046994.0,Y
1513743695.9,286047002.7,P
1513743715.7,286047001.6,N
1513743735.6,286047001.7,N
1513743755.4,286047002.1,N
1513743775.3,286047004.3,N
1513743795.1,286047000.4,N
1513743796.0,286047000.4,N
1513743815.8,286047002.4,N
1513743835.7,286047000.1,N
1513743855.5,286047001.1,N
1513743875.3,286046998.4,N
1513743895.2,286046999.0,N
1513743915.0,286046999.5,N
1513743915.9,286046999.5,N
1513743935.8,286046998.2,N
1513743955.6,286047000.1,N
1513743975.4,286047000.6,N
1513743995.3,286047001.0,N
1513744015.1,286046998.0,N
1513744035.9,286046996.8,N
1513744055.7,286046998.2,N
1513744075.5,286046998.4,N
1513744095.4,286047002.7,N
1513744115.2,286047000.6,N
1513744135.0,286046998.2,N
1513744136.0,286046998.2,N
1513744155.8,286047001.2,N
1513744175.6,286047000.9,N
1513744195.5,286046999.0,N
1513744215.3,286046996.5,N
1513744235.1,286047001.1,N
1513744255.9,286047001.1,N
1513744275.7,286047000.3,N
1513744295.6,286047002.7,N
1513744315.4,286047000.6,N
1513744335.2,286046998.1,N
1513744355.1,286047000.8,N
1513744356.0,286047000.8,N
1513744375.8,286046999.9,N
1513744395.6,286047002.8,N
1513744415.5,286047000.2,N
1513744435.3,286046999.9,N
1513744455.2,286046999.7,N
1513744475.9,286047002.7,N
1513744495.7,286047002.8,N
1513744515.6,286047002.3,N
1513744535.4,286047002.0,N
1513744555.2,286047002.3,N
1513744575.1,286047002.2,N
1513744576.0,286047002.2,N
1513744595.8,286047001.5,N
1513744615.7,286047001.9,N
1513744635.5,286047001.4,N
1513744655.3,286047003.7,N
1513744675.2,286047003.5,N
1513744695.0,286047004.0,N
1513744695.9,286047004.0,N
1513744715.8,286047001.3,N
1513744735.6,286047000.3,N
1513744755.4,286047002.2,N
1513744775.3,286047002.4,N
1513744795.1,286047001.8,N
1513744815.8,286047000.4,N
1513744835.7,286046999.7,N
1513744855.5,286046999.8,N
1513744875.4,286047002.6,N
1513744895.2,286047004.2,Y
1513744915.0,286047000.3,P
1513744915.9,286047000.3,N
1513744935.8,286047000.0,N
1513744955.6,286047001.9,N
1513744975.5,286047002.2,N
1513744995.3,286047002.5,N
1513745015.1,286047002.2,N
1513745035.9,286047001.4,N
1513745055.7,286047003.9,Y
1513745075.5,286047002.5,P
1513745095.4,286046999.7,N
1513745115.2,286047002.6,N
1513745135.1,286047002.5,N
1513745136.0,286047002.5,N
1513745155.8,286047002.5,N
1513745175.6,286047002.0,N
1513745195.5,286047002.5,N
1513745215.3,286046999.8,N
1513745235.1,286047002.5,N
1513745255.9,286047001.8,N
1513745275.7,286047001.8,N
1513745295.6,286047003.1,Y
1513745315.4,286047002.6,P
1513745335.2,286047002.2,P
1513745355.1,286047002.5,P
1513745356.0,286047002.5,Y
1513745375.8,286046998.5,P
1513745395.7,286046998.7,N
1513745415.5,286046996.9,N
1513745435.3,286047000.1,N
1513745455.2,286047000.1,N
1513745475.0,286046998.6,N
1513745475.9,286046998.6,N
1513745495.7,286046998.9,N
1513745515.6,286046998.4,N
1513745535.4,286046999.3,N
1513745555.3,286046998.1,N
1513745575.1,286047000.9,N
1513745595.8,286047000.1,N
1513745615.7,286047000.9,N
1513745635.5,286047000.7,N
1513745655.4,286047002.7,N
1513745675.2,286047002.8,N
1513745695.0,286046999.7,N
1513745695.9,286046999.7,N
1513745715.8,286046998.6,N
1513745735.6,286046999.2,N
1513745755.4,286046997.0,N
1513745775.3,286046996.6,N
1513745795.1,286046999.4,N
1513745815.9,286046998.6,N
1513745835.7,286046996.6,N
1513745855.5,286046999.5,N
1513745875.4,286046999.0,N
1513745895.2,286046999.5,N
1513745915.1,286046999.4,N
1513745916.0,286047011.9,Y
1513745935.8,286046998.2,P
1513745955.6,286046998.7,N
1513745975.5,286046998.5,P
1513745995.3,286047000.3,N
